Other Public Products
Issued by NWS Charleston, SC

Current Version | Previous Version | Graphics & Text | Print | Product List | Glossary Off
Versions: 1 2 3 4 5 6 7 8 9 10 11 12 13 14 15 16 17 18 19 20 21 22 23 24 25 26 27 28 29 30 31 32 33 34 35 36 37 38 39 40 41 42 43 44 45 46 47 48 49 50

331
FPUS82 KCHS 281727
OPUCHS

TEST...KCHS/KSAV Gateway Observations...TEST
National Weather Service Charleston SC
100 PM EDT TUE MAR 28 2017

NOTE: "fair" indicates few or no clouds below 12,000 feet with no
significant weather and/or obstructions to visibility.

SCZ050-WAZ558-NCZ071-TXZ119-213-PAZ071-DCZ001-FLZ074-172-MI076-
NYZ176-178-MAZ016-IL014-TNZ027-NJZ106-GAZ044-MD014-281800-

...Gateway Observations for Charleston International...

CITY           SKY/WX    TMP DP  RH WIND       PRES   REMARKS
Chas Airport   MOSUNNY   83  56  39 W12       29.96F
Seattle        LGT RAIN  47  42  83 S12G21    30.20S
Charlotte      MOSUNNY   75  57  53 VRB5      29.93F
Dallas DFW     CLOUDY    72  63  73 E12       29.85F
Dallas Love    PTSUNNY   75  63  66 SE16      29.86F
Philladelphia  LGT RAIN  51  49  92 NE10      29.87F FOG
Wash National  CLOUDY    64  60  87 W12       29.86S
Baltimore      CLOUDY    67  61  81 W12       29.83F
Miami          PTSUNNY   81  61  50 VRB3      30.05F
Detroit        CLOUDY    47  38  71 N13       30.06S
Newark         LGT RAIN  45  44  97 NW7       29.93R FOG
Laguardia      LGT RAIN  43  40  89 NE13      29.92F FOG
J F K          LGT RAIN  47  46  97 E12       29.93R
Boston Logan   CLOUDY    40  38  93 NE9       30.01F WCI  34
Ft. Lauderdale MOSUNNY   81  63  54 VRB3      30.04F
Chicago O`Hare PTSUNNY   47  37  68 NE12      30.12S
Chicago Midway CLOUDY    44  38  79 N9        30.13S
Houston Bush   MOSUNNY   81  68  64 SE15      29.90S
Houston Hobby  MOSUNNY   82  67  60 S13G23    29.90S
Nashville      PTSUNNY   66  51  58 N6        30.03S
Atlanta        PTSUNNY   73  63  70 W12       30.01F

$$

GAZ044-118-TXZ119-213-NCZ071-DCZ001-MDZ014-506-PAZ021-071-NJZ106-
NYZ176-178-MAZ106-OHZ011-021-055-MIZ076-KYZ091-ILZ014-INZ047-
MNZ060-ONZ431-281800-

...Gateway Observations for Savannah International...

CITY           SKY/WX    TMP DP  RH WIND       PRES   REMARKS
Savannah Arpt  MOSUNNY   83  56  39 SW10G21   30.00F
Atlanta        PTSUNNY   73  63  70 W12       30.01F
Charlotte      MOSUNNY   75  57  53 VRB5      29.93F
Dallas DFW     CLOUDY    72  63  73 E12       29.85F
Houston Bush   MOSUNNY   81  68  64 SE15      29.90S
Wash National  CLOUDY    64  60  87 W12       29.86S
Wash Dulles    CLOUDY    65  58  78 NW8       29.86F
Baltimore      CLOUDY    67  61  81 W12       29.83F
Philadelphia   LGT RAIN  51  49  92 NE10      29.87F FOG
Newark         LGT RAIN  45  44  97 NW7       29.93R FOG
Laguardia      LGT RAIN  43  40  89 NE13      29.92F FOG
J F K          LGT RAIN  47  46  97 E12       29.93R
Boston         CLOUDY    40  38  93 NE9       30.01F WCI  34
Pittsburg      CLOUDY    56  56 100 N8        29.89R
Akron          CLOUDY    49  45  86 N14       29.97R FOG
Cleveland      CLOUDY    43  38  82 N10       30.05R
Cincinnati     CLOUDY    61  54  77 N13       29.99R
Columbus       CLOUDY    56  52  85 N15       29.97R
Detroit        CLOUDY    47  38  71 N13       30.06S
Chicago O`Hare PTSUNNY   47  37  68 NE12      30.12S
Minneapolis    MOSUNNY   57  36  45 NE7       30.16R
Indianapolis   PTSUNNY   58  47  66 N10       30.04S
Toronto Canada CLOUDY    43  37  81 N15G21    29.98F

$$




USA.gov is the U.S. government's official web portal to all federal, state and local government web resources and services.